HULIANWANG DIGUI-101 (66417 NORAD) Tracking and Keplerian Element Data

This shows tracking and keplerian element data for the satellite.

Feedback or suggestion? Click here.




ElementValue
Catalog66417
NameHULIANWANG DIGUI-101
Epoch Orbit550
Epoch Day352.7339163
Epoch Year2025
RAAN237.3203
Inclination49.9994
Eccentricity8.78E-05
Argument of Perigee15.0818
Mean Anonmoly345.0116
Mean Motion14.12579481
Decay Rate7.5E-07
L11 66417U 25258F 25352.73391630 .00000075 00000+0 12344-3 0 9993
L22 66417 49.9994 237.3203 0000878 15.0818 345.0116 14.12579481 5508



Live tracking and technical data element details for HULIANWANG DIGUI-101 (NORAD 66417). HULIANWANG DIGUI-101 can be tracked NOW for your location showing map with azimuth and elevation plus other details from your city location.







IsCatalogInMostPopularTable: catalog: 66417, numindb: 6
Update: records affected: 1



GetName: 66417 HULIANWANG DIGUI-101

Hit Count: updated at: Sat, 11 Apr 2026 21:36:07 GMT